[[{"header":{"parameterUnit":"m.s-1","parameterCategory":1,"la1":30.2991,"la2":30.254,"lo1":-89.0895,"lo2":-89.0444,"dy":0.0017,"dx":0.0017,"nx":28,"ny":28,"refTime":"2024-03-20T03:00:00:Z","depth":0,"parameterNumber":2,"parameterNumberName":"U-component_of_WINDS"},"data":[0,0,0,0,0,0,0,0,0,0,0,0,0,0,0,0,0,0,0,0,0,0,0,0,0,0,0,0,0,0,0,0,0,0,0,0,0,0,0,0,0,0,0,0,0,0,0,0,0,0,0,0,0,0,0,0,0,0,-6.3326,-6.3327,0,-6.3427,-6.3429,-6.343,-6.3322,-6.3318,-6.3314,-6.331,-6.3412,-6.3419,-6.3425,0,0,0,0,0,0,0,0,0,0,0,0,0,-6.3037,-6.3043,-6.3326,-6.3327,-6.3328,-6.3427,-6.3429,-6.343,-6.3323,-6.3318,-6.3313,-6.3308,-6.341,-6.3418,-6.3426,0,0,0,0,0,0,0,0,0,0,0,0,0,-6.3153,-6.3045,-6.3326,-6.3287,-6.3284,-6.3427,-6.3429,-6.343,-6.3324,-6.3318,-6.3312,-6.3306,-6.3408,-6.3417,-6.3427,-6.3612,0,0,-6.3457,-6.3461,0,0,0,0,0,0,0,0,-6.3147,-6.3164,-6.3291,-6.329,-6.3287,-6.3356,-6.3364,-6.3491,-6.3326,-6.3309,-6.331,-6.3303,-6.3398,-6.3409,-6.3441,-6.3617,-6.3621,-6.3458,-6.3464,-6.3468,-6.3471,0,0,0,0,0,0,0,-6.3139,-6.3159,-6.3366,-6.3293,-6.3291,-6.3264,-6.3274,-6.3388,-6.3387,-6.331,-6.3302,-6.3316,-6.3396,-6.3432,-6.3443,-6.3623,-6.3458,-6.3466,-6.3473,-6.3476,-6.3953,-6.396,0,0,0,0,0,0,-6.3135,-6.3153,-6.3363,-6.3369,-6.32,-6.3274,-6.3285,-6.334,-6.3386,-6.3387,-6.3321,-6.3311,-6.3418,-6.3432,-6.3446,-6.3663,-6.3468,-6.3477,-6.3483,-6.3947,-6.3955,-6.3962,0,0,0,0,0,0,-6.313,-6.3155,-6.3359,-6.3259,-6.3283,-6.3286,-6.3349,-6.3345,-6.3381,-6.3394,-6.3393,-6.3358,-6.3414,-6.3432,-6.3571,-6.3666,-6.3482,-6.3491,-6.3939,-6.3949,-6.3959,-6.4101,0,0,0,0,0,0,-6.3122,-6.3154,-6.3224,-6.3261,-6.3289,-6.3483,-6.3355,-6.3352,-6.3399,-6.3386,-6.3429,-6.343,-6.341,-6.3557,-6.3581,-6.3676,-6.3498,-6.393,-6.3943,-6.3955,-6.4088,-6.4115,-6.4138,0,0,0,0,0,-6.3112,-6.326,-6.3228,-6.3254,-6.3377,-6.3488,-6.3504,-6.3479,-6.3407,-6.3477,-6.3486,-6.3428,-6.3653,-6.3572,-6.3598,-6.3697,-6.3924,-6.394,-6.3954,-6.4077,-6.411,-6.4138,0,0,0,0,0,0,-6.3233,-6.3264,-6.3229,-6.3394,-6.344,-6.347,-6.3558,-6.3515,-6.3581,-6.3566,-6.3533,-6.3543,-6.369,-6.3708,-6.3619,-6.3878,-6.3776,-6.3797,-6.386,-6.3892,-6.3916,-6.3907,-6.3507,0,0,0,0,0,-6.328,-6.3368,-6.3391,-6.3534,-6.3559,-6.3555,-6.3603,-6.358,-6.3625,-6.3644,-6.3662,-6.3708,-6.3788,-6.3842,-6.3917,-6.4092,-6.4098,-6.4173,-6.4198,-6.4218,-6.4236,-6.4328,-6.436,-6.4012,-6.4012,-6.4012,0,0,-6.3375,-6.3404,-6.3461,-6.3559,-6.3591,-6.3683,-6.3572,-6.3673,-6.374,-6.3659,-6.379,-6.3806,-6.3855,-6.4012,-6.4083,-6.4032,-6.4334,-6.4238,-6.4254,-6.426,-6.4347,-6.438,-6.4409,-6.4022,-6.4021,-6.4019,0,0,-6.3596,-6.3627,-6.3749,-6.3784,-6.3835,-6.3832,-6.3862,-6.3899,-6.3906,-6.4039,-6.3979,-6.4059,-6.4198,-6.4235,-6.4272,-6.4508,-6.4457,-6.4534,-6.4663,-6.4753,-6.478,-6.4804,-6.4886,-6.4916,-6.4552,-6.4553,-6.4553,0,-6.3708,-6.3843,-6.3817,-6.3923,-6.3967,-6.3899,-6.4021,-6.4057,-6.413,-6.4161,-6.4104,-6.4278,-6.4306,-6.447,-6.4527,-6.4561,-6.4592,-6.4527,-6.4779,-6.4803,-6.4825,-6.4902,-6.4933,-6.4561,-6.456,-6.4559,-6.4559,0,-6.3977,-6.4073,-6.4165,-6.4237,-6.4292,-6.4406,-6.4396,-6.4455,-6.4429,-6.4432,-6.4567,-6.4599,-6.4678,-6.4716,-6.4691,-6.4877,-6.4843,-6.4784,-6.4679,-6.4867,-6.4938,-6.4968,-6.4574,-6.4571,-6.4568,-6.4566,0,0,-6.4273,-6.4331,-6.4365,-6.4396,-6.4448,-6.4521,-6.4632,-6.471,-6.476,-6.4814,-6.4904,-6.5025,-6.497,-6.5012,-6.4991,-6.5071,-6.5253,-6.5,-6.5001,-6.5043,-6.5456,-6.5498,-6.5533,-6.5221,-6.5227,-6.5231,-6.5451,0,-6.4492,-6.4684,-6.4664,-6.4846,-6.4933,-6.4871,-6.4967,-6.5009,-6.5016,-6.509,-6.5097,-6.5181,-6.5104,-6.5128,-6.5205,-6.5214,-6.5334,-6.5199,-6.5302,-6.5306,-6.5288,-6.557,-6.5615,-6.5821,-6.5479,-6.5484,-6.5487,0,-6.4772,-6.4835,-6.5026,-6.5064,-6.51,-6.5187,-6.5256,-6.5329,-6.5376,-6.5374,-6.5423,-6.5388,-6.5499,-6.5396,-6.5547,-6.5455,-6.5497,-6.5508,-6.5516,-6.5521,-6.5405,-6.558,-6.5886,-6.5915,-6.5532,-6.5528,-6.5525,0,-6.4964,-6.5098,-6.5229,-6.5258,-6.5307,-6.5369,-6.5392,-6.5433,-6.5481,-6.5543,-6.5573,-6.5647,-6.5687,-6.5745,-6.5731,-6.5658,-6.5885,-6.5781,-6.5885,-6.5885,-6.5931,-6.5928,-6.6244,-6.5966,-6.5965,-6.5965,-6.5964,0,-6.5208,-6.5326,-6.5315,-6.5396,-6.5526,-6.5503,-6.5633,-6.5648,-6.5685,-6.5767,-6.5719,-6.5796,-6.5775,-6.5852,-6.5842,-6.5967,-6.5987,-6.5987,-6.5982,-6.5989,-6.5989,-6.6013,-6.5997,-6.5973,-6.5971,-6.597,-6.5968,0,-6.5443,-6.5441,-6.5579,-6.5615,-6.5626,-6.5721,-6.575,-6.5826,-6.5829,-6.5933,-6.5956,-6.5961,-6.6049,-6.6042,-6.6141,-6.6134,-6.6288,-6.6268,-6.6272,-6.6266,-6.6368,-6.6357,-6.6708,-6.6752,-6.6449,-6.6452,-6.6454,0,-6.5596,-6.5686,-6.5732,-6.5783,-6.581,-6.5894,-6.5943,-6.5925,-6.5977,-6.6038,-6.6105,-6.6189,-6.6254,-6.6397,-6.6409,-6.6484,-6.6464,-6.6582,-6.6474,-6.6478,-6.6461,-6.6454,-6.6462,-6.6601,-6.6605,-6.6608,-6.661,0,-6.5868,-6.5863,-6.5936,-6.6009,-6.6069,-6.6126,-6.6177,-6.6222,-6.6208,-6.6271,-6.636,-6.6411,-6.6512,-6.6594,-6.6666,-6.6689,-6.6647,-6.6645,-6.6671,-6.6677,-6.6674,-6.6673,-6.6325,-6.6635,-6.6633,-6.6631,-6.6629,-6.6628,-6.6064,-6.614,-6.6184,-6.6267,-6.6304,-6.6353,-6.6425,-6.6438,-6.6512,-6.6593,-6.6578,-6.6678,-6.6722,-6.6814,-6.6845,-6.6922,-6.6879,-6.692,-6.6929,-6.6938,-6.6948,-6.6666,-6.6936,-6.6935,-6.6934,-6.6934,-6.6933,0,-6.633,-6.6356,-6.6432,-6.6506,-6.6571,-6.6528,-6.6583,-6.664,-6.6728,-6.6773,-6.6839,-6.6941,-6.7021,-6.7041,-6.7118,-6.7176,-6.7159,-6.7196,-6.719,-6.7195,-6.6984,-6.6951,-6.7209,-6.7209,-6.7209,-6.7209,-6.7209,-6.7209,-6.6476,-6.6601,-6.6602,-6.6745,-6.677,-6.6867,-6.6902,-6.6947,-6.6982,-6.7099,-6.7165,-6.7178,-6.7213,-6.7292,-6.7364,-6.7367,-6.7396,-6.7441,-6.7437,-6.7238,-6.721,-6.7184,-6.7152,-6.7449,-6.7449,-6.7641,-6.7643,-6.7645]},{"header":{"parameterUnit":"m.s-1","parameterCategory":1,"la1":30.2991,"la2":30.254,"lo1":-89.0895,"lo2":-89.0444,"dy":0.0017,"dx":0.0017,"nx":28,"ny":28,"refTime":"2024-03-20T03:00:00:Z","depth":0,"parameterNumber":3,"parameterNumberName":"V-component_of_WINDS"},"data":[0,0,0,0,0,0,0,0,0,0,0,0,0,0,0,0,0,0,0,0,0,0,0,0,0,0,0,0,0,0,0,0,0,0,0,0,0,0,0,0,0,0,0,0,0,0,0,0,0,0,0,0,0,0,0,0,0,0,0.0561,0.0561,0,0.0611,0.0611,0.0612,0.0647,0.0647,0.0648,0.0648,0.0699,0.07,0.0701,0,0,0,0,0,0,0,0,0,0,0,0,0,0.0496,0.0497,0.0561,0.0561,0.0562,0.0611,0.0611,0.0612,0.0647,0.0647,0.0648,0.0648,0.0699,0.07,0.0701,0,0,0,0,0,0,0,0,0,0,0,0,0,0.0533,0.0497,0.0561,0.0585,0.0588,0.0611,0.0611,0.0612,0.0647,0.0647,0.0648,0.0648,0.0698,0.07,0.0702,0.0703,0,0,0.0707,0.0707,0,0,0,0,0,0,0,0,0.0531,0.0535,0.0581,0.0584,0.0587,0.0623,0.0607,0.0643,0.0647,0.0625,0.0648,0.0648,0.0673,0.0677,0.0686,0.0706,0.0708,0.0707,0.0708,0.0708,0.0709,0,0,0,0,0,0,0,0.0528,0.0533,0.0581,0.0582,0.0585,0.0594,0.06,0.0614,0.0646,0.0627,0.0629,0.0635,0.0675,0.0684,0.0687,0.0709,0.0707,0.0708,0.0709,0.071,0.0734,0.0734,0,0,0,0,0,0,0.0522,0.0531,0.0579,0.0582,0.0559,0.0595,0.0601,0.0611,0.0646,0.0652,0.0634,0.0636,0.0681,0.0685,0.0689,0.0694,0.0708,0.071,0.0711,0.0735,0.0734,0.0734,0,0,0,0,0,0,0.052,0.0526,0.0577,0.0557,0.0564,0.0596,0.0606,0.0612,0.0621,0.0652,0.0658,0.0637,0.0681,0.0687,0.07,0.0696,0.0711,0.0712,0.0735,0.0734,0.0734,0.0704,0,0,0,0,0,0,0.0518,0.0525,0.0526,0.0557,0.0565,0.0587,0.0606,0.0612,0.0623,0.0626,0.0656,0.0662,0.0682,0.0697,0.0701,0.0699,0.0714,0.0735,0.0735,0.0734,0.0705,0.0703,0.07,0,0,0,0,0,0.0516,0.0515,0.0526,0.0531,0.0567,0.0586,0.0591,0.0615,0.0623,0.0624,0.0645,0.0661,0.0696,0.0698,0.0703,0.0701,0.0736,0.0735,0.0734,0.0707,0.0703,0.07,0,0,0,0,0,0,0.0482,0.052,0.0532,0.0541,0.056,0.0592,0.0594,0.061,0.0627,0.0629,0.0658,0.0664,0.0674,0.0689,0.0691,0.0706,0.0718,0.0718,0.0695,0.0692,0.069,0.0686,0.0715,0,0,0,0,0,0.0476,0.0488,0.052,0.0526,0.0535,0.0563,0.0572,0.0589,0.061,0.0618,0.0639,0.0659,0.0675,0.0684,0.07,0.0708,0.0715,0.0709,0.0707,0.0704,0.0704,0.071,0.0708,0.0731,0.0731,0.0731,0,0,0.0463,0.0485,0.0491,0.0519,0.0536,0.0549,0.0569,0.0581,0.0591,0.062,0.0634,0.065,0.0674,0.0684,0.069,0.0697,0.0699,0.0703,0.0701,0.0702,0.0709,0.0706,0.0704,0.0731,0.0731,0.0731,0,0,0.0446,0.0464,0.047,0.0487,0.0512,0.0531,0.0533,0.0563,0.0575,0.0589,0.0611,0.0623,0.0649,0.0666,0.0678,0.0668,0.0684,0.0673,0.0658,0.0664,0.0662,0.066,0.0657,0.0656,0.0672,0.0672,0.0672,0,0.0427,0.0446,0.0472,0.0483,0.0495,0.0522,0.0529,0.0544,0.0573,0.0581,0.0589,0.0623,0.0641,0.0656,0.0654,0.0662,0.0665,0.0669,0.066,0.0659,0.0658,0.0655,0.0654,0.0671,0.0671,0.0671,0.0671,0,0.0422,0.0435,0.0437,0.0465,0.0478,0.0487,0.0514,0.0523,0.0539,0.0557,0.0572,0.0595,0.0616,0.0621,0.0637,0.0639,0.0643,0.0655,0.0668,0.0653,0.0652,0.0651,0.0668,0.0669,0.0669,0.067,0,0,0.0384,0.0427,0.0427,0.0441,0.0471,0.0482,0.0493,0.0514,0.0522,0.0541,0.0551,0.0573,0.0585,0.0598,0.0616,0.0621,0.0612,0.0632,0.0633,0.0628,0.0616,0.0607,0.0605,0.0623,0.0623,0.0623,0.0615,0,0.0372,0.0392,0.0416,0.0428,0.0441,0.0468,0.0477,0.0497,0.0514,0.0528,0.0548,0.0563,0.0577,0.0585,0.0591,0.0612,0.061,0.0613,0.0632,0.0633,0.0625,0.0604,0.0594,0.0586,0.0614,0.0614,0.0614,0,0.036,0.0379,0.0393,0.0423,0.0429,0.0437,0.0459,0.0471,0.0495,0.0507,0.0523,0.0542,0.0555,0.0566,0.0585,0.0586,0.0596,0.0607,0.0607,0.061,0.0622,0.0607,0.0583,0.0582,0.0613,0.0613,0.0613,0,0.0332,0.0361,0.0373,0.0383,0.0418,0.0424,0.0438,0.0462,0.0474,0.0493,0.0501,0.0521,0.0532,0.0548,0.0572,0.0578,0.0588,0.0602,0.0599,0.0598,0.06,0.0599,0.0577,0.0606,0.0606,0.0606,0.0606,0,0.0316,0.0324,0.0361,0.0368,0.0377,0.0405,0.0413,0.043,0.0451,0.0463,0.0487,0.0497,0.0528,0.0543,0.0562,0.0574,0.0579,0.059,0.0595,0.0588,0.0586,0.0594,0.0595,0.0605,0.0605,0.0605,0.0606,0,0.0286,0.0311,0.0326,0.0358,0.0367,0.0372,0.04,0.0409,0.0428,0.0442,0.0447,0.0477,0.0495,0.0521,0.0546,0.0559,0.0569,0.0577,0.0561,0.0564,0.056,0.056,0.0543,0.0542,0.057,0.057,0.057,0,0.0274,0.0281,0.0314,0.0323,0.0337,0.0352,0.0364,0.0392,0.0403,0.0431,0.0436,0.0456,0.0473,0.0501,0.0525,0.0545,0.0554,0.0546,0.0557,0.055,0.0554,0.0553,0.0554,0.0544,0.0543,0.0543,0.0542,0,0.0251,0.0263,0.0279,0.03,0.0314,0.0332,0.0351,0.0357,0.0389,0.0401,0.0419,0.0433,0.0459,0.0479,0.0502,0.0518,0.0536,0.0539,0.054,0.0532,0.0523,0.0528,0.0554,0.0539,0.054,0.054,0.054,0.054,0.023,0.0237,0.0261,0.0279,0.0296,0.0314,0.0323,0.0344,0.036,0.0384,0.0399,0.0417,0.0441,0.0474,0.0489,0.0504,0.0511,0.0512,0.0512,0.0512,0.0509,0.0521,0.0508,0.0508,0.0509,0.0509,0.0509,0,0.0208,0.0225,0.0241,0.0267,0.0281,0.0296,0.0318,0.0329,0.0345,0.0366,0.0382,0.0404,0.0423,0.0449,0.0471,0.0477,0.0486,0.0482,0.0482,0.0485,0.0502,0.0499,0.0475,0.0475,0.0475,0.0475,0.0475,0.0475,0.0198,0.0211,0.0226,0.0248,0.0266,0.0283,0.0295,0.0311,0.0328,0.0351,0.0367,0.0384,0.0407,0.0431,0.0449,0.0456,0.0463,0.0457,0.0466,0.0481,0.0484,0.0487,0.0485,0.0458,0.0458,0.0449,0.0449,0.0449]}]]